Regional Weather Roundup
Issued by NWS

Home | Current Version | Previous Version | Text Only | Print | Product List | Glossary Off
Versions: 1 2 3 4 5 6 7 8 9 10 11 12 13 14 15 16 17 18 19 20 21 22 23 24 25 26 27 28 29 30 31 32 33 34 35 36 37 38 39 40 41 42 43 44 45 46 47 48 49 50

000
ASUS45 KPSR 222210
RWRAZ

ARIZONA REGIONAL HOURLY WEATHER ROUNDUP
NATIONAL WEATHER SERVICE PHOENIX AZ
300 PM MST TUE JUL 22 2014

NOTE: FAIR INDICATES FEW OR NO CLOUDS BELOW 12,000 FEET WITH NO
SIGNIFICANT WEATHER AND/OR OBSTRUCTIONS TO VISIBILITY.

AZZ001>003-036-222300-
NORTHWEST ARIZONA

CITY           SKY/WX    TMP DP  RH WIND       PRES   REMARKS
BULLHEAD CITY  SUNNY    109  32   7 S10       29.88F HX 102
KINGMAN        SUNNY    100  22   6 SW14G21   30.11S
$$

AZZ004>008-015-016-018-222300-
NORTH CENTRAL ARIZONA

CITY           SKY/WX    TMP DP  RH WIND       PRES   REMARKS
GRAND CANYON   MOSUNNY   88  31  13 VRB5G18   30.36F
WILLIAMS       CLOUDY    84  34  16 E5        30.44S
PRESCOTT       PTSUNNY   94  38  14 E8        30.23F
FLAGSTAFF      PTSUNNY   84  38  19 VRB5      30.40F HAZE
PAYSON         MOSUNNY   97  37  12 VRB6G15   30.22F
PAGE           SUNNY    103  31   8 NW9       30.13F
$$

AZZ009>014-017-222300-
NORTHEAST ARIZONA

CITY           SKY/WX    TMP DP  RH WIND       PRES   REMARKS
WINSLOW        MOSUNNY   97  36  12 E9G16     30.19F
SAINT JOHNS    MOSUNNY   96  40  14 NE9       30.23F
WINDOW ROCK    PTSUNNY   89  30  12 S9G21     30.36F
SHOW LOW       PTSUNNY   84  39  20 SE7       30.34F
$$

AZZ023-222300-
GREATER PHOENIX AREA

CITY           SKY/WX    TMP DP  RH WIND       PRES   REMARKS
PHOENIX        PTSUNNY  111  43  10 NW13G22   29.85F HX 105
BUCKEYE          N/A    109  46  12 W5G16     29.87F HX 105
GLENDALE       MOSUNNY  111  46  11 S7        29.87F HX 107
LUKE AFB       NOT AVBL
DEER VALLEY    MOSUNNY  108  42  10 W13       29.87F HX 102
SCOTTSDALE     SUNNY    108  44  11 CALM      29.89F HX 103
MESA-GATEWAY   PTSUNNY  108  43  11 NW12      29.90F HX 102
CHANDLER       PTSUNNY  108  45  12 W6        29.87F HX 103
$$

AZZ027-028-222300-
SOUTHWEST MARICOPA COUNTY AND PINAL COUNTY

CITY           SKY/WX    TMP DP  RH WIND       PRES   REMARKS
CASA GRANDE    SUNNY    108  48  13 N10       29.90F HX 104
GILA BEND      PTCLDY   111  45  10 VRB6      29.87F HX 106
$$

AZZ503-504-507>509-222300-
SOUTHEAST ARIZONA

CITY           SKY/WX    TMP DP  RH WIND       PRES   REMARKS
TUCSON         MOSUNNY  103  44  13 VRB5      30.00F
DAVIS-MONTHAN  SUNNY    102  48  16 S3        29.99F
RYAN FIELD       N/A    102  46  15 W7        29.99
NOGALES        MOSUNNY   96  49  20 SW8       30.10F
SIERRA VISTA   PTSUNNY   93  46  20 CALM      30.19F
DOUGLAS        MOSUNNY   95  53  24 S8        30.12F
SAFFORD        SUNNY    104  43  12 NW5       29.97F
$$

AZZ020-021-025-026-031-222300-
SOUTHWEST ARIZONA

CITY           SKY/WX    TMP DP  RH WIND       PRES   REMARKS
YUMA           NOT AVBL
$$

CAZ031-033-041-043-047-048-061-222300-
SOUTHERN CALIFORNIA

CITY           SKY/WX    TMP DP  RH WIND       PRES   REMARKS
DOWNTOWN L.A.  SUNNY     80  59  48 VRB6G16   30.02F
L.A. AIRPORT   MOSUNNY   76  59  55 W18       30.04F
SAN DIEGO      MOSUNNY   77  63  61 NW12G23   30.04S
BURBANK        SUNNY     88  55  32 S10       30.01F
ONTARIO        MOSUNNY   92  55  28 W14G21    30.01F
RIVERSIDE      SUNNY     93  54  26 W12G22    30.00F
PALM SPRINGS   MOSUNNY  109  39   9 N10G24    29.88F HX 103
EL CENTRO NAS  MOSUNNY  109  38   9 SE9       29.82F HX 102
IMPERIAL       SUNNY    109  39   9 E7        29.82F HX 103
BLYTHE         SUNNY    109  38   9 S3        29.85F HX 102
NEEDLES        SUNNY    110  23   5 VRB5      29.89F HX 101
$$

NVZ020-UTZ003-222300-
SOUTHERN NEVADA-UTAH

CITY           SKY/WX    TMP DP  RH WIND       PRES   REMARKS
LAS VEGAS      MOSUNNY  106  24   5 SE8       29.93F
SALT LAKE CITY MOSUNNY   97  34  11 NE9       30.13F
$$

NMZ009-TXZ055-222300-
NEW MEXICO-WEST TEXAS

CITY           SKY/WX    TMP DP  RH WIND       PRES   REMARKS
ALBUQUERQUE    PTSUNNY   92  48  22 E31G40    30.22S
EL PASO        MOSUNNY   99  51  19 MISG      30.06F
$$


........................KEY........................
SKY/WX - SKY CONDITION/WEATHER
TMP    - TEMPERATURE IN FAHRENHEIT
DP     - DEW POINT IN FAHRENHEIT
RH     - RELATIVE HUMIDITY IN PERCENT
WIND   - DIRECTION AND SPEED IN MILES PER HOUR (MPH)
VRB    - VARIABLE WIND DIRECTION
PRES   - MEAN SEA LEVEL PRESSURE IN INCHES OF MERCURY
         F - FALLING PRESSURE   R - RISING PRESSURE
         S - STEADY PRESSURE
VSB    - VISIBILITY IN MILES
HX     - HEAT INDEX IN FAHRENHEIT
WCI    - WIND CHILL INDEX IN FAHRENHEIT
TC     - TEMPERATURE IN CELSIUS WHICH IS ALSO KNOWN AS
         TEMPERATURE IN CENTIGRADE
AFB    - AIR FORCE BASE
         LUKE AFB IS LUKE AIR FORCE BASE
         DAVIS-MONTHAN IS DAVIS-MONTHAN AIR FORCE BASE
NAS    - NAVAL AIR STATION
         EL CENTRO NAS IS EL CENTRO NAVAL AIR STATION
N/A    - NOT AVAILABLE



USA.gov is the U.S. government's official web portal to all federal, state and local government web resources and services.